ENVISAT

Last updated on Tue Jul 08 2025 00:02:14 GMT+0000 (Coordinated Universal Time)

1 27386U 02009A 25188.51494582 .00000064 00000+0 34540-4 0 9998 2 27386 98.3347 143.5112 0001375 85.9136 28.6574 14.38925765223916
UTC large
Height (km)
Speed (km/s)
/
Latitude / Longitude
Inclination (degrees)
Orbital Period (minutes)
Azimuth
Elevation
Range (km)
Doppler Factor

Next 0 passes for location: London (51.5072 / 0.1276)

Sorry there are no passes over London.